"Sample Date","Sample Time","Sample Value","Units","Flow Rate","Number Channels","Micron Size 0","Counts/Channel 0","Micron Size 1","Counts/Channel 1","Micron Size 2","Counts/Channel 2","Micron Size 3","Counts/Channel 3","Micron Size 4","Counts/Channel 4","Micron Size 5","Counts/Channel 5","Micron Size 6","Counts/Channel 6","Micron Size 7","Counts/Channel 7","Micron Size 8","Counts/Channel 8","Micron Size 9","Counts/Channel 9","Micron Size 10","Counts/Channel 10","Micron Size 11","Counts/Channel 11","Micron Size 12","Counts/Channel 12","Micron Size 13","Counts/Channel 13","Micron Size 14","Counts/Channel 14","Micron Size 15","Counts/Channel 15","Micron Size 16","Counts/Channel 16","Micron Size 17","Counts/Channel 17","Micron Size 18","Counts/Channel 18","Micron Size 19","Counts/Channel 19","Micron Size 20","Counts/Channel 20","Micron Size 21","Counts/Channel 21","Micron Size 22","Counts/Channel 22","Micron Size 23","Counts/Channel 23","Micron Size 24","Counts/Channel 24","Micron Size 25","Counts/Channel 25","Micron Size 26","Counts/Channel 26","Micron Size 27","Counts/Channel 27","Micron Size 28","Counts/Channel 28","Micron Size 29","Counts/Channel 29","Micron Size 30","Counts/Channel 30","Micron Size 31","Counts/Channel 31"
"05/11/08","15:00:03",5089.000,"cc",28336.313,6,0.100,4391.000,0.200,659.000,0.300,35.000,0.500,4.000,1.000,0,5.000,0
"05/11/08","15:00:09",3943.000,"cc",28349.193,6,0.100,3365.000,0.200,533.000,0.300,39.000,0.500,6.000,1.000,0,5.000,0
"05/11/08","15:00:15",4202.000,"cc",28393.809,6,0.100,3580.000,0.200,549.000,0.300,58.000,0.500,14.000,1.000,1.000,5.000,0
"05/11/08","15:00:21",3141.000,"cc",28287.027,6,0.100,2671.000,0.200,416.000,0.300,43.000,0.500,11.000,1.000,0,5.000,0
"05/11/08","15:00:27",2859.000,"cc",28258.266,6,0.100,2414.000,0.200,407.000,0.300,34.000,0.500,4.000,1.000,0,5.000,0
"05/11/08","15:00:33",3002.000,"cc",28359.574,6,0.100,2528.000,0.200,424.000,0.300,39.000,0.500,10.000,1.000,1.000,5.000,0
"05/11/08","15:00:39",2548.000,"cc",28338.770,6,0.100,2141.000,0.200,365.000,0.300,35.000,0.500,7.000,1.000,0,5.000,0
"05/11/08","15:00:45",2284.000,"cc",28346.445,6,0.100,1943.000,0.200,304.000,0.300,32.000,0.500,5.000,1.000,0,5.000,0
"05/11/08","15:00:51",3744.000,"cc",28297.193,6,0.100,3167.000,0.200,521.000,0.300,47.000,0.500,9.000,1.000,0,5.000,0
"05/11/08","15:00:57",4099.000,"cc",28298.822,6,0.100,3493.000,0.200,557.000,0.300,38.000,0.500,11.000,1.000,0,5.000,0
"05/11/08","15:01:03",3978.000,"cc",28348.223,6,0.100,3380.000,0.200,533.000,0.300,58.000,0.500,7.000,1.000,0,5.000,0
"05/11/08","15:01:09",3597.000,"cc",28369.131,6,0.100,3010.000,0.200,512.000,0.300,65.000,0.500,9.000,1.000,1.000,5.000,0
"05/11/08","15:01:15",3984.000,"cc",28390.633,6,0.100,3392.000,0.200,527.000,0.300,51.000,0.500,14.000,1.000,0,5.000,0
"05/11/08","15:01:21",3253.000,"cc",28261.137,6,0.100,2770.000,0.200,437.000,0.300,40.000,0.500,6.000,1.000,0,5.000,0
"05/11/08","15:01:27",4544.000,"cc",28300.096,6,0.100,3890.000,0.200,588.000,0.300,55.000,0.500,10.000,1.000,1.000,5.000,0
"05/11/08","15:01:33",2624.000,"cc",28305.410,6,0.100,2198.000,0.200,392.000,0.300,28.000,0.500,5.000,1.000,1.000,5.000,0
"05/11/08","15:01:39",4565.000,"cc",28341.191,6,0.100,3939.000,0.200,578.000,0.300,39.000,0.500,9.000,1.000,0,5.000,0
"05/11/08","15:01:45",3022.000,"cc",28266.941,6,0.100,2595.000,0.200,388.000,0.300,31.000,0.500,7.000,1.000,1.000,5.000,0
"05/11/08","15:01:51",3381.000,"cc",28325.133,6,0.100,2818.000,0.200,505.000,0.300,48.000,0.500,9.000,1.000,1.000,5.000,0
"05/11/08","15:01:57",3186.000,"cc",28296.068,6,0.100,2724.000,0.200,410.000,0.300,42.000,0.500,10.000,1.000,0,5.000,0
"05/11/08","15:02:03",2658.000,"cc",28305.854,6,0.100,2209.000,0.200,384.000,0.300,52.000,0.500,13.000,1.000,0,5.000,0
"05/11/08","15:02:09",3135.000,"cc",28291.639,6,0.100,2585.000,0.200,471.000,0.300,60.000,0.500,18.000,1.000,1.000,5.000,0
"05/11/08","15:02:15",3759.000,"cc",28346.586,6,0.100,3206.000,0.200,494.000,0.300,47.000,0.500,12.000,1.000,0,5.000,0
"05/11/08","15:02:21",2769.000,"cc",28312.887,6,0.100,2321.000,0.200,406.000,0.300,35.000,0.500,6.000,1.000,1.000,5.000,0
"05/11/08","15:02:27",3546.000,"cc",28270.963,6,0.100,2977.000,0.200,499.000,0.300,57.000,0.500,13.000,1.000,0,5.000,0
"05/11/08","15:02:33",3453.000,"cc",28293.565,6,0.100,2930.000,0.200,471.000,0.300,42.000,0.500,9.000,1.000,1.000,5.000,0
"05/11/08","15:02:39",4068.000,"cc",28344.232,6,0.100,3486.000,0.200,527.000,0.300,47.000,0.500,8.000,1.000,0,5.000,0
"05/11/08","15:02:45",4170.000,"cc",28320.172,6,0.100,3616.000,0.200,500.000,0.300,45.000,0.500,9.000,1.000,0,5.000,0
"05/11/08","15:02:51",5591.000,"cc",28360.078,6,0.100,4791.000,0.200,721.000,0.300,65.000,0.500,14.000,1.000,0,5.000,0
"05/11/08","15:02:57",7278.000,"cc",28375.965,6,0.100,6242.000,0.200,956.000,0.300,64.000,0.500,15.000,1.000,1.000,5.000,0
"05/11/08","15:03:03",6288.000,"cc",28298.272,6,0.100,5444.000,0.200,780.000,0.300,53.000,0.500,10.000,1.000,1.000,5.000,0
"05/11/08","15:03:09",5031.000,"cc",28307.477,6,0.100,4348.000,0.200,615.000,0.300,57.000,0.500,11.000,1.000,0,5.000,0
"05/11/08","15:03:15",6189.000,"cc",28310.131,6,0.100,5226.000,0.200,885.000,0.300,65.000,0.500,12.000,1.000,1.000,5.000,0
"05/11/08","15:03:21",5150.000,"cc",28310.467,6,0.100,4459.000,0.200,623.000,0.300,60.000,0.500,8.000,1.000,0,5.000,0
"05/11/08","15:03:27",10135.000,"cc",28337.742,6,0.100,8750.000,0.200,1300.000,0.300,77.000,0.500,7.000,1.000,1.000,5.000,0
"05/11/08","15:03:33",14304.000,"cc",28354.272,6,0.100,12552.000,0.200,1656.000,0.300,88.000,0.500,7.000,1.000,1.000,5.000,0
"05/11/08","15:03:39",11677.000,"cc",28259.613,6,0.100,10166.000,0.200,1429.000,0.300,70.000,0.500,12.000,1.000,0,5.000,0
"05/11/08","15:03:45",14535.000,"cc",28313.188,6,0.100,12742.000,0.200,1681.000,0.300,101.000,0.500,11.000,1.000,0,5.000,0
"05/11/08","15:03:51",14270.000,"cc",28406.356,6,0.100,12470.000,0.200,1686.000,0.300,94.000,0.500,18.000,1.000,2.000,5.000,0
"05/11/08","15:03:57",13864.000,"cc",28338.043,6,0.100,12113.000,0.200,1651.000,0.300,82.000,0.500,17.000,1.000,1.000,5.000,0
"05/11/08","15:04:03",9130.000,"cc",28314.047,6,0.100,7945.000,0.200,1102.000,0.300,71.000,0.500,12.000,1.000,0,5.000,0
"05/11/08","15:04:09",9476.000,"cc",28303.404,6,0.100,8260.000,0.200,1127.000,0.300,72.000,0.500,16.000,1.000,1.000,5.000,0
"05/11/08","15:04:15",7962.000,"cc",28292.148,6,0.100,6907.000,0.200,963.000,0.300,71.000,0.500,20.000,1.000,1.000,5.000,0
"05/11/08","15:04:21",7824.000,"cc",28321.381,6,0.100,6780.000,0.200,971.000,0.300,62.000,0.500,10.000,1.000,1.000,5.000,0
"05/11/08","15:04:27",8903.000,"cc",28318.287,6,0.100,7728.000,0.200,1081.000,0.300,81.000,0.500,13.000,1.000,0,5.000,0
"05/11/08","15:04:33",8616.000,"cc",28290.164,6,0.100,7453.000,0.200,1079.000,0.300,72.000,0.500,12.000,1.000,0,5.000,0
"05/11/08","15:04:39",5298.000,"cc",28350.420,6,0.100,4572.000,0.200,654.000,0.300,63.000,0.500,9.000,1.000,0,5.000,0
"05/11/08","15:04:45",4335.000,"cc",28344.984,6,0.100,3741.000,0.200,545.000,0.300,45.000,0.500,4.000,1.000,0,5.000,0
"05/11/08","15:04:51",4383.000,"cc",28204.477,6,0.100,3767.000,0.200,536.000,0.300,65.000,0.500,15.000,1.000,0,5.000,0
"05/11/08","15:04:57",6343.000,"cc",28352.967,6,0.100,5470.000,0.200,782.000,0.300,75.000,0.500,15.000,1.000,1.000,5.000,0
"05/11/08","15:05:03",3525.000,"cc",28292.080,6,0.100,3055.000,0.200,407.000,0.300,51.000,0.500,12.000,1.000,0,5.000,0
"05/11/08","15:05:09",4388.000,"cc",28225.758,6,0.100,3761.000,0.200,563.000,0.300,56.000,0.500,8.000,1.000,0,5.000,0
"05/11/08","15:05:15",5163.000,"cc",28313.152,6,0.100,4522.000,0.200,584.000,0.300,46.000,0.500,11.000,1.000,0,5.000,0
"05/11/08","15:05:21",4787.000,"cc",28328.197,6,0.100,4171.000,0.200,565.000,0.300,41.000,0.500,10.000,1.000,0,5.000,0
"05/11/08","15:05:27",4197.000,"cc",28331.957,6,0.100,3629.000,0.200,521.000,0.300,42.000,0.500,4.000,1.000,1.000,5.000,0
"05/11/08","15:05:33",2924.000,"cc",28362.920,6,0.100,2512.000,0.200,376.000,0.300,28.000,0.500,7.000,1.000,1.000,5.000,0
"05/11/08","15:05:39",2984.000,"cc",28293.031,6,0.100,2559.000,0.200,393.000,0.300,25.000,0.500,6.000,1.000,1.000,5.000,0
"05/11/08","15:05:45",3030.000,"cc",28258.119,6,0.100,2623.000,0.200,368.000,0.300,33.000,0.500,6.000,1.000,0,5.000,0
"05/11/08","15:05:51",2385.000,"cc",28261.908,6,0.100,2051.000,0.200,308.000,0.300,22.000,0.500,4.000,1.000,0,5.000,0
"05/11/08","15:05:57",3098.000,"cc",28356.889,6,0.100,2649.000,0.200,405.000,0.300,36.000,0.500,8.000,1.000,0,5.000,0
"05/11/08","15:06:03",2974.000,"cc",28344.598,6,0.100,2549.000,0.200,382.000,0.300,35.000,0.500,8.000,1.000,0,5.000,0
"05/11/08","15:06:09",2813.000,"cc",28299.408,6,0.100,2422.000,0.200,345.000,0.300,33.000,0.500,10.000,1.000,3.000,5.000,0
"05/11/08","15:06:15",2960.000,"cc",28315.242,6,0.100,2488.000,0.200,418.000,0.300,37.000,0.500,16.000,1.000,1.000,5.000,0
"05/11/08","15:06:21",4143.000,"cc",28360.145,6,0.100,3568.000,0.200,522.000,0.300,43.000,0.500,9.000,1.000,1.000,5.000,0
"05/11/08","15:06:27",4862.000,"cc",28298.490,6,0.100,4246.000,0.200,564.000,0.300,40.000,0.500,12.000,1.000,0,5.000,0
"05/11/08","15:06:33",4152.000,"cc",28333.209,6,0.100,3616.000,0.200,477.000,0.300,50.000,0.500,9.000,1.000,0,5.000,0
"05/11/08","15:06:39",7181.000,"cc",28314.488,6,0.100,6282.000,0.200,819.000,0.300,69.000,0.500,11.000,1.000,0,5.000,0
"05/11/08","15:06:45",6089.000,"cc",28255.531,6,0.100,5299.000,0.200,728.000,0.300,55.000,0.500,7.000,1.000,0,5.000,0
"05/11/08","15:06:51",7023.000,"cc",28322.047,6,0.100,6095.000,0.200,856.000,0.300,58.000,0.500,13.000,1.000,1.000,5.000,0
"05/11/08","15:06:57",7303.000,"cc",28277.568,6,0.100,6350.000,0.200,881.000,0.300,61.000,0.500,11.000,1.000,0,5.000,0
"05/11/08","15:07:03",5101.000,"cc",28369.029,6,0.100,4374.000,0.200,671.000,0.300,47.000,0.500,8.000,1.000,1.000,5.000,0
"05/11/08","15:07:09",3941.000,"cc",28299.555,6,0.100,3440.000,0.200,460.000,0.300,27.000,0.500,11.000,1.000,3.000,5.000,0
"05/11/08","15:07:15",3342.000,"cc",28315.184,6,0.100,2850.000,0.200,443.000,0.300,37.000,0.500,11.000,1.000,1.000,5.000,0
"05/11/08","15:07:21",4098.000,"cc",28313.422,6,0.100,3545.000,0.200,499.000,0.300,48.000,0.500,6.000,1.000,0,5.000,0
"05/11/08","15:07:27",3789.000,"cc",28305.965,6,0.100,3209.000,0.200,495.000,0.300,65.000,0.500,20.000,1.000,0,5.000,0
"05/11/08","15:07:33",2990.000,"cc",28344.398,6,0.100,2507.000,0.200,419.000,0.300,52.000,0.500,11.000,1.000,1.000,5.000,0
"05/11/08","15:07:39",3036.000,"cc",28303.065,6,0.100,2545.000,0.200,411.000,0.300,57.000,0.500,23.000,1.000,0,5.000,0
"05/11/08","15:07:45",2503.000,"cc",28347.666,6,0.100,2105.000,0.200,358.000,0.300,28.000,0.500,12.000,1.000,0,5.000,0
"05/11/08","15:07:51",2062.000,"cc",28298.815,6,0.100,1743.000,0.200,282.000,0.300,32.000,0.500,5.000,1.000,0,5.000,0
"05/11/08","15:07:57",2190.000,"cc",28275.572,6,0.100,1827.000,0.200,317.000,0.300,42.000,0.500,4.000,1.000,0,5.000,0
"05/11/08","15:08:03",1899.000,"cc",28349.859,6,0.100,1595.000,0.200,265.000,0.300,33.000,0.500,6.000,1.000,0,5.000,0
"05/11/08","15:08:09",2417.000,"cc",28317.986,6,0.100,1996.000,0.200,360.000,0.300,45.000,0.500,16.000,1.000,0,5.000,0
"05/11/08","15:08:15",2437.000,"cc",28277.213,6,0.100,2088.000,0.200,306.000,0.300,36.000,0.500,7.000,1.000,0,5.000,0
"05/11/08","15:08:21",3553.000,"cc",28369.594,6,0.100,3055.000,0.200,431.000,0.300,53.000,0.500,14.000,1.000,0,5.000,0
"05/11/08","15:08:27",2428.000,"cc",28340.240,6,0.100,2071.000,0.200,313.000,0.300,34.000,0.500,10.000,1.000,0,5.000,0
"05/11/08","15:08:33",2677.000,"cc",28327.309,6,0.100,2278.000,0.200,344.000,0.300,41.000,0.500,14.000,1.000,0,5.000,0
"05/11/08","15:08:39",3132.000,"cc",28325.928,6,0.100,2682.000,0.200,394.000,0.300,44.000,0.500,11.000,1.000,1.000,5.000,0
"05/11/08","15:08:45",3250.000,"cc",28265.883,6,0.100,2818.000,0.200,381.000,0.300,42.000,0.500,9.000,1.000,0,5.000,0
"05/11/08","15:08:51",5411.000,"cc",28325.522,6,0.100,4699.000,0.200,653.000,0.300,52.000,0.500,6.000,1.000,1.000,5.000,0
"05/11/08","15:08:57",6935.000,"cc",28332.303,6,0.100,6001.000,0.200,863.000,0.300,63.000,0.500,8.000,1.000,0,5.000,0
"05/11/08","15:09:03",4755.000,"cc",28314.440,6,0.100,4134.000,0.200,566.000,0.300,49.000,0.500,5.000,1.000,1.000,5.000,0
"05/11/08","15:09:09",4751.000,"cc",28365.641,6,0.100,4133.000,0.200,543.000,0.300,62.000,0.500,13.000,1.000,0,5.000,0
"05/11/08","15:09:15",3709.000,"cc",28336.250,6,0.100,3195.000,0.200,468.000,0.300,38.000,0.500,8.000,1.000,0,5.000,0
"05/11/08","15:09:21",4337.000,"cc",28282.588,6,0.100,3756.000,0.200,534.000,0.300,40.000,0.500,7.000,1.000,0,5.000,0
"05/11/08","15:09:27",6775.000,"cc",28271.053,6,0.100,5885.000,0.200,819.000,0.300,59.000,0.500,12.000,1.000,0,5.000,0
"05/11/08","15:09:33",9165.000,"cc",28323.272,6,0.100,8027.000,0.200,1061.000,0.300,65.000,0.500,12.000,1.000,0,5.000,0
"05/11/08","15:09:39",9782.000,"cc",28298.143,6,0.100,8582.000,0.200,1126.000,0.300,62.000,0.500,11.000,1.000,1.000,5.000,0
"05/11/08","15:09:45",13931.000,"cc",28333.631,6,0.100,12247.000,0.200,1588.000,0.300,88.000,0.500,8.000,1.000,0,5.000,0
"05/11/08","15:09:51",9025.000,"cc",28308.570,6,0.100,7878.000,0.200,1066.000,0.300,70.000,0.500,11.000,1.000,0,5.000,0
"05/11/08","15:09:57",9225.000,"cc",28302.920,6,0.100,8032.000,0.200,1109.000,0.300,73.000,0.500,11.000,1.000,0,5.000,0
"05/11/08","15:10:03",7878.000,"cc",28286.256,6,0.100,6898.000,0.200,920.000,0.300,52.000,0.500,7.000,1.000,1.000,5.000,0
"05/11/08","15:10:09",7358.000,"cc",28313.070,6,0.100,6413.000,0.200,865.000,0.300,72.000,0.500,7.000,1.000,1.000,5.000,0
"05/11/08","15:10:15",13758.000,"cc",28299.467,6,0.100,12145.000,0.200,1522.000,0.300,80.000,0.500,10.000,1.000,1.000,5.000,0
"05/11/08","15:10:21",8491.000,"cc",28355.156,6,0.100,7462.000,0.200,964.000,0.300,58.000,0.500,7.000,1.000,0,5.000,0
"05/11/08","15:10:27",7212.000,"cc",28326.078,6,0.100,6280.000,0.200,863.000,0.300,61.000,0.500,8.000,1.000,0,5.000,0
"05/11/08","15:10:33",5930.000,"cc",28328.309,6,0.100,5187.000,0.200,693.000,0.300,42.000,0.500,8.000,1.000,0,5.000,0
"05/11/08","15:10:39",7196.000,"cc",28315.164,6,0.100,6276.000,0.200,859.000,0.300,55.000,0.500,6.000,1.000,0,5.000,0
"05/11/08","15:10:45",10224.000,"cc",28322.098,6,0.100,9012.000,0.200,1144.000,0.300,55.000,0.500,12.000,1.000,1.000,5.000,0
"05/11/08","15:10:51",11380.000,"cc",28306.969,6,0.100,10008.000,0.200,1296.000,0.300,70.000,0.500,6.000,1.000,0,5.000,0
"05/11/08","15:10:57",8124.000,"cc",28325.631,6,0.100,7147.000,0.200,887.000,0.300,77.000,0.500,13.000,1.000,0,5.000,0
"05/11/08","15:11:03",5069.000,"cc",28264.154,6,0.100,4421.000,0.200,602.000,0.300,40.000,0.500,6.000,1.000,0,5.000,0
"05/11/08","15:11:09",4813.000,"cc",28326.824,6,0.100,4128.000,0.200,632.000,0.300,40.000,0.500,13.000,1.000,0,5.000,0
"05/11/08","15:11:15",5058.000,"cc",28352.680,6,0.100,4417.000,0.200,584.000,0.300,49.000,0.500,8.000,1.000,0,5.000,0
"05/11/08","15:11:21",5349.000,"cc",28286.625,6,0.100,4672.000,0.200,624.000,0.300,46.000,0.500,7.000,1.000,0,5.000,0
"05/11/08","15:11:27",5788.000,"cc",28282.748,6,0.100,4998.000,0.200,704.000,0.300,73.000,0.500,13.000,1.000,0,5.000,0
"05/11/08","15:11:33",7922.000,"cc",28301.719,6,0.100,6873.000,0.200,964.000,0.300,69.000,0.500,15.000,1.000,1.000,5.000,0
"05/11/08","15:11:39",4328.000,"cc",28381.084,6,0.100,3703.000,0.200,575.000,0.300,47.000,0.500,3.000,1.000,0,5.000,0
"05/11/08","15:11:45",8300.000,"cc",28336.963,6,0.100,7241.000,0.200,999.000,0.300,49.000,0.500,11.000,1.000,0,5.000,0
"05/11/08","15:11:51",6811.000,"cc",28293.070,6,0.100,5955.000,0.200,795.000,0.300,51.000,0.500,10.000,1.000,0,5.000,0
"05/11/08","15:11:57",4885.000,"cc",28334.092,6,0.100,4233.000,0.200,612.000,0.300,33.000,0.500,5.000,1.000,2.000,5.000,0
"05/11/08","15:12:03",3583.000,"cc",28367.242,6,0.100,3110.000,0.200,435.000,0.300,32.000,0.500,6.000,1.000,0,5.000,0
"05/11/08","15:12:09",3034.000,"cc",28296.885,6,0.100,2613.000,0.200,375.000,0.300,39.000,0.500,6.000,1.000,1.000,5.000,0
"05/11/08","15:12:15",3309.000,"cc",28302.647,6,0.100,2815.000,0.200,435.000,0.300,44.000,0.500,15.000,1.000,0,5.000,0
"05/11/08","15:12:21",3567.000,"cc",28322.221,6,0.100,3093.000,0.200,417.000,0.300,46.000,0.500,11.000,1.000,0,5.000,0
"05/11/08","15:12:27",3139.000,"cc",28369.772,6,0.100,2692.000,0.200,397.000,0.300,43.000,0.500,7.000,1.000,0,5.000,0
"05/11/08","15:12:33",3324.000,"cc",28284.852,6,0.100,2849.000,0.200,430.000,0.300,38.000,0.500,6.000,1.000,1.000,5.000,0
"05/11/08","15:12:39",4616.000,"cc",28300.752,6,0.100,4032.000,0.200,531.000,0.300,42.000,0.500,11.000,1.000,0,5.000,0
"05/11/08","15:12:45",3145.000,"cc",28296.932,6,0.100,2720.000,0.200,394.000,0.300,26.000,0.500,5.000,1.000,0,5.000,0
"05/11/08","15:12:51",2596.000,"cc",28296.295,6,0.100,2228.000,0.200,316.000,0.300,40.000,0.500,12.000,1.000,0,5.000,0
"05/11/08","15:12:57",2440.000,"cc",28280.199,6,0.100,2090.000,0.200,310.000,0.300,33.000,0.500,7.000,1.000,0,5.000,0
"05/11/08","15:13:03",3054.000,"cc",28333.090,6,0.100,2563.000,0.200,439.000,0.300,42.000,0.500,10.000,1.000,0,5.000,0
"05/11/08","15:13:09",2980.000,"cc",28340.545,6,0.100,2529.000,0.200,413.000,0.300,29.000,0.500,9.000,1.000,0,5.000,0
"05/11/08","15:13:15",3188.000,"cc",28330.512,6,0.100,2731.000,0.200,416.000,0.300,27.000,0.500,14.000,1.000,0,5.000,0
"05/11/08","15:13:21",5282.000,"cc",28343.277,6,0.100,4617.000,0.200,617.000,0.300,43.000,0.500,5.000,1.000,0,5.000,0
"05/11/08","15:13:27",3530.000,"cc",28341.197,6,0.100,3060.000,0.200,435.000,0.300,27.000,0.500,7.000,1.000,1.000,5.000,0
"05/11/08","15:13:33",4357.000,"cc",28344.361,6,0.100,3746.000,0.200,543.000,0.300,57.000,0.500,10.000,1.000,1.000,5.000,0
"05/11/08","15:13:39",8063.000,"cc",28333.031,6,0.100,6952.000,0.200,1016.000,0.300,79.000,0.500,16.000,1.000,0,5.000,0
"05/11/08","15:13:45",7715.000,"cc",28347.086,6,0.100,6750.000,0.200,888.000,0.300,68.000,0.500,8.000,1.000,1.000,5.000,0
"05/11/08","15:13:51",7234.000,"cc",28353.014,6,0.100,6267.000,0.200,874.000,0.300,71.000,0.500,21.000,1.000,1.000,5.000,0
"05/11/08","15:13:57",7150.000,"cc",28266.043,6,0.100,6224.000,0.200,837.000,0.300,71.000,0.500,18.000,1.000,0,5.000,0
"05/11/08","15:14:03",4685.000,"cc",28326.065,6,0.100,4000.000,0.200,637.000,0.300,37.000,0.500,10.000,1.000,1.000,5.000,0
"05/11/08","15:14:09",6303.000,"cc",28312.379,6,0.100,5496.000,0.200,739.000,0.300,51.000,0.500,16.000,1.000,1.000,5.000,0
"05/11/08","15:14:15",6029.000,"cc",28283.197,6,0.100,5203.000,0.200,757.000,0.300,57.000,0.500,11.000,1.000,1.000,5.000,0
"05/11/08","15:14:21",5930.000,"cc",28376.940,6,0.100,5125.000,0.200,732.000,0.300,57.000,0.500,14.000,1.000,2.000,5.000,0
"05/11/08","15:14:27",4620.000,"cc",28315.660,6,0.100,4016.000,0.200,542.000,0.300,49.000,0.500,12.000,1.000,1.000,5.000,0
"05/11/08","15:14:33",5526.000,"cc",28323.867,6,0.100,4766.000,0.200,696.000,0.300,53.000,0.500,10.000,1.000,1.000,5.000,0
"05/11/08","15:14:39",7576.000,"cc",28342.457,6,0.100,6574.000,0.200,915.000,0.300,71.000,0.500,16.000,1.000,0,5.000,0
"05/11/08","15:14:45",6195.000,"cc",28250.400,6,0.100,5376.000,0.200,744.000,0.300,62.000,0.500,12.000,1.000,1.000,5.000,0
"05/11/08","15:14:51",4774.000,"cc",28292.623,6,0.100,4104.000,0.200,618.000,0.300,40.000,0.500,12.000,1.000,0,5.000,0
"05/11/08","15:14:57",4540.000,"cc",28231.273,6,0.100,3926.000,0.200,556.000,0.300,47.000,0.500,11.000,1.000,0,5.000,0
"05/11/08","15:15:03",4285.000,"cc",28304.107,6,0.100,3691.000,0.200,543.000,0.300,43.000,0.500,7.000,1.000,1.000,5.000,0
"05/11/08","15:15:09",3690.000,"cc",28273.457,6,0.100,3115.000,0.200,519.000,0.300,44.000,0.500,12.000,1.000,0,5.000,0
"05/11/08","15:15:15",3490.000,"cc",28376.514,6,0.100,2981.000,0.200,459.000,0.300,39.000,0.500,11.000,1.000,0,5.000,0
"05/11/08","15:15:21",2444.000,"cc",28335.815,6,0.100,2058.000,0.200,346.000,0.300,31.000,0.500,8.000,1.000,1.000,5.000,0
"05/11/08","15:15:27",3434.000,"cc",28270.385,6,0.100,2951.000,0.200,443.000,0.300,36.000,0.500,4.000,1.000,0,5.000,0
"05/11/08","15:15:33",3161.000,"cc",28370.902,6,0.100,2719.000,0.200,394.000,0.300,39.000,0.500,8.000,1.000,1.000,5.000,0
"05/11/08","15:15:39",2444.000,"cc",28400.570,6,0.100,2087.000,0.200,324.000,0.300,26.000,0.500,7.000,1.000,0,5.000,0
"05/11/08","15:15:45",5004.000,"cc",28290.867,6,0.100,4330.000,0.200,622.000,0.300,38.000,0.500,13.000,1.000,1.000,5.000,0
"05/11/08","15:15:51",3579.000,"cc",28285.414,6,0.100,3043.000,0.200,492.000,0.300,38.000,0.500,6.000,1.000,0,5.000,0
"05/11/08","15:15:57",4463.000,"cc",28313.885,6,0.100,3803.000,0.200,597.000,0.300,52.000,0.500,11.000,1.000,0,5.000,0
"05/11/08","15:16:03",3425.000,"cc",28373.895,6,0.100,2925.000,0.200,450.000,0.300,37.000,0.500,12.000,1.000,1.000,5.000,0
"05/11/08","15:16:09",3330.000,"cc",28345.709,6,0.100,2823.000,0.200,443.000,0.300,57.000,0.500,7.000,1.000,0,5.000,0
"05/11/08","15:16:15",4575.000,"cc",28321.482,6,0.100,3900.000,0.200,612.000,0.300,55.000,0.500,8.000,1.000,0,5.000,0
"05/11/08","15:16:21",3367.000,"cc",28330.955,6,0.100,2867.000,0.200,429.000,0.300,53.000,0.500,17.000,1.000,1.000,5.000,0
"05/11/08","15:16:27",4086.000,"cc",28267.389,6,0.100,3454.000,0.200,563.000,0.300,53.000,0.500,16.000,1.000,0,5.000,0
"05/11/08","15:16:33",2733.000,"cc",28290.777,6,0.100,2322.000,0.200,372.000,0.300,29.000,0.500,10.000,1.000,0,5.000,0
"05/11/08","15:16:39",3579.000,"cc",28389.625,6,0.100,3068.000,0.200,442.000,0.300,52.000,0.500,16.000,1.000,1.000,5.000,0
"05/11/08","15:16:45",3599.000,"cc",28345.570,6,0.100,3088.000,0.200,457.000,0.300,42.000,0.500,12.000,1.000,0,5.000,0
"05/11/08","15:16:51",2782.000,"cc",28321.522,6,0.100,2347.000,0.200,383.000,0.300,43.000,0.500,8.000,1.000,1.000,5.000,0
"05/11/08","15:16:57",3715.000,"cc",28321.479,6,0.100,3161.000,0.200,493.000,0.300,53.000,0.500,7.000,1.000,1.000,5.000,0
"05/11/08","15:17:03",4411.000,"cc",28269.203,6,0.100,3787.000,0.200,575.000,0.300,43.000,0.500,4.000,1.000,2.000,5.000,0
"05/11/08","15:17:09",3720.000,"cc",28242.078,6,0.100,3183.000,0.200,488.000,0.300,38.000,0.500,10.000,1.000,1.000,5.000,0
"05/11/08","15:17:15",3318.000,"cc",28302.672,6,0.100,2811.000,0.200,442.000,0.300,46.000,0.500,18.000,1.000,1.000,5.000,0
"05/11/08","15:17:21",3625.000,"cc",28309.365,6,0.100,3056.000,0.200,497.000,0.300,53.000,0.500,19.000,1.000,0,5.000,0
"05/11/08","15:17:27",3599.000,"cc",28345.385,6,0.100,3056.000,0.200,487.000,0.300,42.000,0.500,14.000,1.000,0,5.000,0
"05/11/08","15:17:33",4170.000,"cc",28356.207,6,0.100,3548.000,0.200,560.000,0.300,56.000,0.500,6.000,1.000,0,5.000,0
"05/11/08","15:17:39",4205.000,"cc",28320.508,6,0.100,3597.000,0.200,557.000,0.300,42.000,0.500,8.000,1.000,1.000,5.000,0
"05/11/08","15:17:45",3375.000,"cc",28305.240,6,0.100,2889.000,0.200,432.000,0.300,44.000,0.500,10.000,1.000,0,5.000,0
"05/11/08","15:17:51",3589.000,"cc",28290.977,6,0.100,3070.000,0.200,469.000,0.300,43.000,0.500,5.000,1.000,2.000,5.000,0
"05/11/08","15:17:57",3874.000,"cc",28314.652,6,0.100,3277.000,0.200,525.000,0.300,66.000,0.500,6.000,1.000,0,5.000,0
"05/11/08","15:18:03",4100.000,"cc",28351.912,6,0.100,3496.000,0.200,536.000,0.300,58.000,0.500,10.000,1.000,0,5.000,0
"05/11/08","15:18:09",3941.000,"cc",28324.109,6,0.100,3364.000,0.200,511.000,0.300,52.000,0.500,13.000,1.000,1.000,5.000,0
"05/11/08","15:18:15",5601.000,"cc",28338.199,6,0.100,4891.000,0.200,629.000,0.300,66.000,0.500,15.000,1.000,0,5.000,0
"05/11/08","15:18:21",3143.000,"cc",28332.256,6,0.100,2697.000,0.200,393.000,0.300,38.000,0.500,15.000,1.000,0,5.000,0
"05/11/08","15:18:27",3118.000,"cc",28323.311,6,0.100,2662.000,0.200,402.000,0.300,41.000,0.500,12.000,1.000,1.000,5.000,0
"05/11/08","15:18:33",3681.000,"cc",28296.277,6,0.100,3163.000,0.200,476.000,0.300,34.000,0.500,7.000,1.000,1.000,5.000,0
"05/11/08","15:18:39",3557.000,"cc",28336.805,6,0.100,3045.000,0.200,470.000,0.300,35.000,0.500,7.000,1.000,0,5.000,0